Home > Weather > Faridkot > Past weeks

Flag for India Weather for the Past 2 Weeks in Faridkot, Punjab, India

Now
104 °F

Passing clouds.


Feels Like: 103 °F
Forecast: 87 / 106 °F
Wind: 5 mph from South

Location: Lahore Airport

Current Time: May 2, 2016 at 12:24:37 PM

Latest Report: May 2, 2016 at 11:25 AM


Visibility: 4 mi

Pressure: 29.65 "Hg

Humidity: 20%

Dew Point: 55 °F

Location of FaridkotLocation

Historic Weather in Faridkot — Graph

°F

Faridkot Temperature Yesterday

Maximum temperature yesterday: 109 °F (at 1:55 PM)
Minimum temperature yesterday: 79 °F (at 5:25 AM)
Average temperature yesterday: 98 °F

High & Low Weather Summary for the Past Weeks

 TemperatureHumidityPressure
High109 °F (May 1, 1:55 PM)100% (Apr 21, 9:25 PM)30.01 "Hg (Apr 21, 9:25 PM)
Low68 °F (Apr 27, 2:25 AM)9% (Apr 30, 2:25 PM)29.56 "Hg (Apr 22, 4:25 PM)
Average88 °F32%29.71 "Hg
* Reported Apr 17 12:25 PM — May 2 10:25 AM, Faridkot, Weather by CustomWeather, © 2016

Note: Actual official high and low records may vary slightly from our data, if they occured in-between our weather recording intervals... More about our weather records

Advertising

Faridkot Weather History for the Previous 24 Hours

Scroll right to see more
 ConditionsComfort  
Time TempWeatherWind HumidityBarometerVisibility
10:25 AM
Mon, May 2
100 °FHaze.7 mph21%29.65 "Hg3 mi
9:55 AM95 °FHaze.7 mph30%29.65 "Hg2 mi
9:25 AM93 °FHaze.6 mph32%29.65 "Hg2 mi
8:55 AM90 °FHaze.6 mph27%29.62 "Hg2 mi
8:25 AM88 °FHaze.6 mph29%29.62 "Hg2 mi
7:55 AM84 °FHaze.3 mph35%29.62 "Hg1 mi
7:25 AM82 °FHaze.3 mph37%29.62 "Hg1 mi
6:55 AM81 °FHaze.3 mph37%29.59 "Hg1 mi
6:25 AM81 °FHaze.No wind37%29.59 "Hg2 mi
5:25 AM79 °FHaze.No wind45%29.59 "Hg2 mi
4:25 AM81 °FHaze.3 mph45%29.56 "Hg2 mi
3:55 AM81 °FHaze.5 mph42%29.56 "Hg2 mi
3:25 AM82 °FHaze.No wind40%29.56 "Hg2 mi
2:25 AM84 °FHaze.No wind37%29.56 "Hg2 mi
1:55 AM86 °FHaze.No wind31%29.56 "Hg2 mi
1:25 AM88 °FHaze.No wind33%29.59 "Hg2 mi
12:55 AM91 °FHaze.No wind26%29.59 "Hg2 mi
12:25 AM91 °FHaze.No wind26%29.59 "Hg2 mi
11:55 PM
Sun, May 1
93 °FHaze.No wind24%29.59 "Hg2 mi
11:25 PM93 °FHaze.No wind24%29.62 "Hg2 mi
10:55 PM95 °FHaze.No wind20%29.62 "Hg2 mi
10:25 PM95 °FHaze.3 mph20%29.62 "Hg2 mi
9:55 PM95 °FHaze.5 mph20%29.59 "Hg3 mi
9:25 PM97 °FHaze.5 mph19%29.59 "Hg3 mi
8:55 PM97 °FClear.5 mph18%29.59 "Hg4 mi
8:25 PM99 °FClear.5 mph17%29.59 "Hg4 mi
7:55 PM100 °FClear.5 mph16%29.59 "Hg4 mi
7:25 PM102 °FClear.6 mph15%29.56 "Hg4 mi
6:55 PM104 °FClear.3 mph12%29.56 "Hg4 mi
6:25 PM106 °FClear.8 mph13%29.56 "Hg4 mi
5:55 PM108 °FClear.8 mph12%29.56 "Hg4 mi
5:25 PM109 °FClear.10 mph11%29.56 "Hg4 mi
4:55 PM109 °FClear.12 mph12%29.59 "Hg4 mi
4:25 PM109 °FClear.9 mph12%29.59 "Hg4 mi
3:55 PM109 °FClear.12 mph14%29.59 "Hg4 mi
3:25 PM109 °FClear.14 mph14%29.59 "Hg4 mi
2:55 PM109 °FClear.12 mph14%29.59 "Hg4 mi
2:25 PM109 °FClear.10 mph14%29.62 "Hg4 mi
1:55 PM109 °FClear.9 mph12%29.62 "Hg4 mi
1:25 PM108 °FHaze.10 mph13%29.65 "Hg3 mi
12:55 PM106 °FHaze.9 mph14%29.65 "Hg3 mi
12:25 PM106 °FHaze.10 mph14%29.65 "Hg3 mi
Weather by CustomWeather, © 2016

See weather overviewHow to use our weather pages